Regional Weather Roundup
Issued by NWS

Home | Current Version | Previous Version | Graphics & Text | Print | Product List | Glossary On
Versions: 1 2 3 4 5 6 7 8 9 10 11 12 13 14 15 16 17 18 19 20 21 22 23 24 25 26 27 28 29 30 31 32 33 34 35 36 37 38 39 40 41 42 43 44 45 46 47 48 49 50
244
ASUS45 KTFX 142210
RWRMT
MONTANA REGIONAL WEATHER ROUNDUP
NATIONAL WEATHER SERVICE GREAT FALLS MT
300 PM MST THU DEC 14 2017

NOTE: "FAIR" INDICATES FEW OR NO CLOUDS BELOW 12000 FEET WITH NO
SIGNIFICANT WEATHER AND/OR OBSTRUCTIONS TO VISIBILITY.

MTZ001>007-043-142300-
WEST OF THE DIVIDE

CITY           SKY/WX    TMP DP  RH WIND       PRES   REMARKS
KALISPELL      CLOUDY    30  26  85 CALM      30.41F
MISSOULA       FAIR      34  26  72 NW6       30.37F WCI  29
BUTTE          FAIR      29  21  72 CALM      30.29F
MULLAN PASS    FAIR      29  24  82 CALM      30.28F
ANACONDA         N/A     27  21  80 N9        30.30S WCI  17
DEER LODGE       N/A     27  25  93 NE5       30.34F
EUREKA           N/A     25  21  86 MISG      30.44F
HAMILTON         N/A     28  27  93 CALM      30.35F
LIBBY            N/A     30  23  74 CALM      30.42F
PLAINS           N/A     33  24  70 CALM      30.39F
RONAN            N/A     31  25  78 CALM      30.40S
$$

MTZ008-052>055-142300-
SOUTHWEST MONTANA

CITY           SKY/WX    TMP DP  RH WIND       PRES   REMARKS
BOZEMAN        FOG       21  19  92 CALM      30.32F VSB 1/4
DILLON         FAIR      30  22  72 S3        30.31F
W YELLOWSTONE  FAIR      25  18  74 CALM      30.32F
ENNIS          CLOUDY    32  23  69 CALM      30.34F
THREE FORKS      N/A     19  16  88 CALM      30.28F VSB 0
TWIN BRIDGES     N/A     29  19  66 CALM      30.27F
$$

MTZ009-010-012-014-046-048-049-054-142300-
EAST SLOPES AND CENTRAL MONTANA

CITY           SKY/WX    TMP DP  RH WIND       PRES   REMARKS
CUT BANK       FAIR      47  18  31 W18G25    30.09F
GREAT FALLS    FAIR      41  21  44 SW16      30.15F
HELENA         FAIR      26  23  88 E5        30.31F
CHOTEAU          N/A     50  16  25 W9        30.12F
ULM            FAIR      42  21  44 W15       30.17F
$$

MTZ011-013-016-021-045-047-050-051-142300-
NORTH CENTRAL MONTANA

CITY           SKY/WX    TMP DP  RH WIND       PRES   REMARKS
HAVRE          FAIR      41  25  53 SW12      30.14F
LEWISTOWN      FAIR      40  23  50 CALM      30.15F
N BAR RANCH    FAIR      43  12  28 W6        30.17F
CHINOOK          N/A     39  25  56 W7        30.15F
$$

MTZ017>020-022>027-061-062-142300-
NORTHEAST MONTANA

CITY           SKY/WX    TMP DP  RH WIND       PRES   REMARKS
GLASGOW        FAIR      37  23  56 NW15      30.16F WCI  28
GLENDIVE       MOCLDY    36  22  56 NW15G22   30.17F WCI  27
JORDAN           N/A     40  22  48 W9        30.18F
SIDNEY         MOCLDY    37  24  59 W17G25    30.16S WCI  27
WOLF POINT     FAIR      40  24  53 W15       30.16F
MALTA          CLEAR     37  25  60 W7        30.16F
PLENTYWOOD       N/A     36  25  64 W16       30.09F WCI  26
POPLAR           N/A     37  23  56 W15       30.15F WCI  28
SCOBEY           N/A     36  21  54 W17       30.09F WCI  26
$$

MTZ028>42-056>058-142300-
SOUTHCENTRAL AND SOUTHEAST MONTANA

CITY           SKY/WX    TMP DP  RH WIND       PRES   REMARKS
BAKER          MOCLDY    34  27  75 W12       30.17F WCI  25
BILLINGS       FAIR      46  20  35 W10       30.19F
LIVINGSTON     FAIR      37  25  61 W23       30.22F WCI  26
MILES CITY     FAIR      39  23  52 W13       30.20F WCI  31
BIG TIMBER     SUNNY     39  21  48 W31G40    30.19F WCI  27
EKALAKA          N/A     31  20  63 W12       30.13F WCI  22
FORSYTH          N/A     39  23  52 W7        30.20F
LAUREL           N/A     46  19  34 NW12      30.20F
ROUNDUP          N/A     46  17  31 W9        30.06F
$$

REGIONAL REPORTS...DAKOTAS

CITY           SKY/WX    TMP DP  RH WIND       PRES   REMARKS
WILLISTON      FAIR      37  24  59 NW14      30.13F WCI  28
MINOT          CLOUDY    35  25  66 W22G33    30.05S WCI  23
DICKINSON      CLOUDY    33  24  69 W17       30.11S WCI  22
BEACH          CLOUDY    32  27  80 W14       30.18F WCI  22
CROSBY         CLOUDY    34  25  69 NW18      30.09F WCI  23
TIOGA          CLOUDY    32  28  86 W15G23    30.10S WCI  22
WATFORD CITY   CLOUDY    36  25  64 NW13      30.12F WCI  27
BISMARCK       CLOUDY    35  25  66 NW13G24   30.12S WCI  26
GRAND FORKS    FLURRIES  20  16  84 N6        30.06S WCI  12
FARGO          CLOUDY    24  19  81 N7        30.07S WCI  16
BUFFALO SD       N/A     34  25  69 W16       30.11F WCI  24
RAPID CITY     CLOUDY    34  22  61 NW24G32   30.19R WCI  21
$$

REGIONAL REPORTS...WYOMING/IDAHO/WASHINGTON

CITY           SKY/WX    TMP DP  RH WIND       PRES   REMARKS
GILLETTE       FAIR      34  23  64 NW16      30.20F WCI  24
SHERIDAN       FAIR      42  22  44 NW14G24   30.20F
BUFFALO WY     FAIR      39  17  41 N12       30.21S WCI  32
CODY           FAIR      40  15  36 S9        30.23F
YELLOWSTONE LA   N/A     23  18  81 CALM      30.33F
IDAHO FALLS    CLOUDY    24  21  88 N5        30.44F FOG
SALMON         FAIR      31  24  75 CALM      30.45F
BOISE          CLOUDY    27  22  81 CALM      30.52F
SPOKANE        CLOUDY    30  29  96 NE7       30.44F FOG     WCI  23
$$

REGIONAL REPORTS...ALBERTA

CITY           SKY/WX    TMP DP  RH WIND       PRES   REMARKS
EDMONTON       MOCLDY    36  25  64 SW10      29.97F WCI  28
CALGARY        CLOUDY    43  19  39 SW8       30.02F
LETHBRIDGE     MOCLDY    48  21  34 W21       30.04F
MEDICINE HAT   MOCLDY    41  28  60 S8        30.08F
$$

REGIONAL REPORTS...SASKATCHEWAN

CITY           SKY/WX    TMP DP  RH WIND       PRES   REMARKS
SWIFT CURRENT  CLEAR     30  25  80 W13       30.10S WCI  20
REGINA         MOCLDY    30  25  80 W15       30.07F WCI  19
SASKATOON      MOCLDY    30  25  80 W7        30.09F WCI  23
$$




USA.gov is the U.S. government's official web portal to all federal, state and local government web resources and services.